Weather in Poldnevoye

Russia / Astrakhan Oblast     45°51′06″N   47°57′21″E
temp.,
°C
wind,
m/s
gust,
m/s
humid.,
%
clouds,
%
prec.,
mm/h
press.,
hPa
HPBL,
m
5 august, thu
thu501:00+26wnw2270100 0.0 101233
04:00+25n006595 0.0 101112
07:00+27n494699 0.0 1011256
10:00+34nne4532100 0.0 1011793
13:00+36s223016 0.0 10112049
16:00+33s65408 0.0 1010508
19:00+25nne111566100 1.1 1011315
22:00+26nne48545 2.1 1011122
6 august, fri
fri601:00+25nne5135291 0.0 1011259
04:00+24nne4114382 0.0 1011192
07:00+25ne410391 0.0 1012249
10:00+33ene56275 0.0 1012753
13:00+35se54280 0.0 10111525
16:00+33se66320 0.0 1010757
19:00+31ese58380 0.0 1009399
22:00+26e47530 0.0 1009133
7 august, sat
sat701:00+26ene49530 0.0 1009154
04:00+27ene614490 0.0 1009391
07:00+28e814470 0.0 1009518
10:00+33e911321 0.0 1009711
13:00+35ese910260 0.0 1008855
16:00+35e911274 0.0 1008723
19:00+31ene914360 0.0 1007483
22:00+29ene715400 0.0 1008337
8 august, sun
sun801:00+29e8164434 0.0 1008368
04:00+29e716515 0.0 1008401
07:00+31ese8164577 0.0 1008525
10:00+33se8143743 0.0 1008641
13:00+33se68435 0.0 1009449
16:00+33se79385 0.0 1008469
19:00+30se595211 0.0 1008242
22:00+27se46745 0.0 1009100
9 august, mon
mon901:00+26s337839 0.0 100926
04:00+26sse227658 0.0 100913
07:00+28wnw22635 0.0 100950
10:00+36nw23335 0.0 1009881
13:00+37sw233086 0.0 10091625
16:00+36ssw333331 0.0 10091231
19:00+30s586539 0.0 1009160
22:00+28sw3473100 0.0 101053